Flag for Germany Weather past 2 weeks in Zerbst/Anhalt, Saxony-Anhalt, Germany

Now
46 °F

Overcast.


Feels Like: 45 °F
Forecast: 36 / 68 °F
Wind: 3 mph from Northwest

Location: Magdeburg


UV Index: 3 (Moderate)

Visibility: 31 mi


Pressure: 29.82 "Hg

Humidity: 81%

Dew point: 41 °F

Location of Zerbst/AnhaltLocation

Historic Weather in Zerbst/Anhalt

°F

Zerbst/Anhalt temperature yesterday

Maximum temperature yesterday: 58 °F (at 6:00 PM)
Minimum temperature yesterday: 33 °F (at 7:00 AM)
Average temperature yesterday: 46 °F

Past Weeks' High & Low Weather Summary

 TemperatureHumidityPressure
High72 °F (Apr 3, 4:00 PM)99% (Apr 6, 3:00 AM)30.47 "Hg (Apr 6, 3:00 AM)
Low31 °F (Apr 16, 6:00 AM)25% (Apr 16, 1:00 PM)29.65 "Hg (Apr 3, 6:00 PM)
Average51 °F74%30.03 "Hg
* Reported Apr 3 11:00 AM — Apr 18 11:00 AM, Zerbst/Anhalt, Weather by CustomWeather, © 2014

Note: Actual official high and low records may vary slightly from our data, if they occured in-between our weather recording intervals... More about our weather records

Advertising

Historic Weather Conditions — Data for Previous 24 hours

 ConditionsComfort  
Time TempWeatherWind HumidityBarometerVisibility
11:00 AM
Apr 18
46 °FOvercast.3 mph81%29.82 "Hg31 mi
10:00 AM46 °FOvercast.3 mph82%29.81 "Hg25 mi
9:00 AM45 °FOvercast.2 mph88%29.80 "Hg19 mi
8:00 AM44 °FOvercast.2 mph90%29.80 "Hg16 mi
7:00 AM44 °FOvercast.2 mph93%29.80 "Hg25 mi
6:00 AM43 °FLight rain. Overcast.1 mph93%29.80 "Hg16 mi
5:00 AM45 °FRain. Overcast.2 mph93%29.80 "Hg3 mi
4:00 AM46 °FRain. Overcast.3 mph91%29.80 "Hg4 mi
3:00 AM47 °FRain. Overcast.3 mph87%29.81 "Hg4 mi
2:00 AM48 °FRain. Overcast.3 mph78%29.84 "Hg4 mi
6:00 PM
Apr 17
58 °FScattered clouds.5 mph38%30.01 "Hg28 mi
5:00 PM56 °FOvercast.7 mph38%30.05 "Hg25 mi
4:00 PM56 °FOvercast.6 mph36%30.09 "Hg31 mi
3:00 PM56 °FOvercast.6 mph38%30.14 "Hg37 mi
2:00 PM54 °FOvercast.6 mph36%30.18 "Hg34 mi
1:00 PM54 °FOvercast.5 mph38%30.22 "Hg37 mi
12:00 PM53 °FOvercast.5 mph39%30.27 "Hg37 mi
Weather by CustomWeather, © 2014

See weather overview